Weather History for Gilze-Rijen, Netherlands

Change the Weather History Date:

Sunday, May 26, 2013

  Actual Average Record
Temperature  
Mean Temperature 50 °F -  
Max Temperature 55 °F 67 °F 84 °F (2005)
Min Temperature 46 °F 49 °F 39 °F (1999)
Degree Days  
Heating Degree Days 14    
Moisture  
Dew Point 44 °F    
Average Humidity 83    
Maximum Humidity 93    
Minimum Humidity 58    
Precipitation  
Precipitation 0.00 in - - ()
Sea Level Pressure  
Sea Level Pressure 29.94 in    
Wind  
Wind Speed 11 mph ()    
Max Wind Speed 17 mph    
Max Gust Speed -    
Visibility 5.8 miles    
Events Rain    
Averages and records for this station are not official NWS values.
T = Trace of Precipitation, MM = Missing Value Source: Averaged Metar Reports

Daily Weather History Graph

Daily Weather History Graph

Search for Another Location

Airport:

Trip Planner

Search our weather history database for the weather conditions in past years. The results will help you decide how hot, cold, wet, or windy it might be!

Date:

Astronomy

May. 26, 2013 Rise Set
Actual Time 5:34 AM CEST 9:41 PM CEST
Civil Twilight 4:49 AM CEST 10:25 PM CEST
Nautical Twilight 3:46 AM CEST 11:29 PM CEST
Astronomical Twilight 2:09 AM CEST 1:04 AM CEST
Moon 11:10 PM CEST (5/26) 6:48 AM CEST (5/26)
Length of Visible Light 17h 36m
Length of Day
16h 07m
Full, 98% of the Moon is Illuminated
May 26
Full
May 31
Last Quarter
Jun 8
New
Jun 16
First Quarter
Jun 23
Full

Hourly Weather History & Observations

Time (CEST) Temp. Windchill Dew Point Humidity Pressure Visibility Wind Dir Wind Speed Gust Speed Precip Events Conditions
12:25 AM 46.4 °F 41.9 °F 44.6 °F 93% 29.98 in 5.0 mi WNW 9.2 mph - N/A Rain Light Rain
12:34 AM 46.4 °F 41.1 °F 44.6 °F 93% 29.98 in 5.0 mi WNW 11.5 mph - N/A Rain Light Rain
12:39 AM 46.4 °F 41.1 °F 44.6 °F 93% 29.98 in 5.0 mi WNW 11.5 mph - N/A Rain Light Rain
12:44 AM 46.4 °F 41.5 °F 44.6 °F 93% 29.98 in 4.3 mi WNW 10.4 mph - N/A Rain Rain
12:55 AM 46.4 °F 41.5 °F 44.6 °F 93% 29.98 in 5.0 mi WNW 10.4 mph - N/A Rain Light Rain
1:08 AM 46.4 °F 41.9 °F 44.6 °F 93% 29.98 in 5.6 mi WNW 9.2 mph - N/A Rain Light Rain
1:17 AM 46.4 °F 41.5 °F 44.6 °F 93% 29.98 in 5.6 mi WNW 10.4 mph - N/A Rain Light Rain
1:21 AM 46.4 °F 41.5 °F 44.6 °F 93% 29.98 in 5.0 mi WNW 10.4 mph - N/A Rain Light Rain
1:25 AM 46.4 °F 41.5 °F 44.6 °F 93% 29.98 in 5.0 mi WNW 10.4 mph - N/A Rain Light Rain
1:30 AM 46.4 °F 41.9 °F 44.6 °F 93% 29.98 in 5.6 mi WNW 9.2 mph - N/A Rain Light Rain
1:44 AM 46.4 °F 41.9 °F 44.6 °F 93% 29.98 in 4.3 mi WNW 9.2 mph - N/A Rain Light Rain
1:51 AM 46.4 °F 41.5 °F 44.6 °F 93% 29.98 in 5.0 mi WNW 10.4 mph - N/A Rain Light Rain
1:55 AM 46.4 °F 41.5 °F 44.6 °F 93% 29.98 in 5.0 mi WNW 10.4 mph - N/A Rain Light Rain
2:13 AM 46.4 °F 41.5 °F 44.6 °F 93% 29.98 in 6.2 mi WNW 10.4 mph - N/A Rain Light Rain
2:20 AM 46.4 °F 41.5 °F 44.6 °F 93% 29.98 in 6.2 mi WNW 10.4 mph - N/A Rain Heavy Drizzle
2:25 AM 46.4 °F 41.1 °F 44.6 °F 93% 29.95 in 4.3 mi WNW 11.5 mph - N/A   Heavy Drizzle
2:31 AM 46.4 °F 41.1 °F 44.6 °F 93% 29.95 in 5.0 mi WNW 11.5 mph - N/A   Heavy Drizzle
2:41 AM 46.4 °F 41.1 °F 44.6 °F 93% 29.95 in 5.0 mi WNW 11.5 mph - N/A Rain Rain
2:47 AM 46.4 °F 41.1 °F 44.6 °F 93% 29.95 in 5.0 mi WNW 11.5 mph - N/A Rain Light Rain
2:55 AM 46.4 °F 41.1 °F 44.6 °F 93% 29.95 in 5.0 mi WNW 11.5 mph - N/A Rain Light Rain
2:59 AM 46.4 °F 41.5 °F 44.6 °F 93% 29.95 in 4.3 mi WNW 10.4 mph - N/A Rain Light Rain
3:19 AM 46.4 °F 41.9 °F 44.6 °F 93% 29.95 in 6.2 mi WNW 9.2 mph - N/A Rain Light Rain
3:25 AM 46.4 °F 41.5 °F 44.6 °F 93% 29.95 in 6.2 mi WNW 10.4 mph - N/A Rain Light Rain
3:55 AM 46.4 °F 41.9 °F 44.6 °F 93% 29.95 in 6.2 mi WNW 9.2 mph - N/A Rain Light Rain
4:04 AM 46.4 °F 41.9 °F 44.6 °F 93% 29.95 in 6.2 mi WNW 9.2 mph - N/A Rain Heavy Drizzle
4:08 AM 46.4 °F 41.5 °F 44.6 °F 93% 29.95 in 5.6 mi WNW 10.4 mph - N/A   Heavy Drizzle
4:12 AM 46.4 °F 41.5 °F 44.6 °F 93% 29.92 in 5.0 mi WNW 10.4 mph - N/A   Heavy Drizzle
4:13 AM 46.4 °F 41.5 °F 44.6 °F 93% 29.92 in 4.3 mi WNW 10.4 mph - N/A Rain Light Rain
4:25 AM 46.4 °F 41.5 °F 44.6 °F 93% 29.92 in 6.2 mi NW 10.4 mph - N/A Rain Light Rain
4:38 AM 46.4 °F 41.9 °F 44.6 °F 93% 29.92 in 6.2 mi NW 9.2 mph - N/A Rain Light Rain
4:46 AM 46.4 °F 41.5 °F 44.6 °F 93% 29.92 in 6.2 mi NW 10.4 mph - N/A   Drizzle
4:55 AM 46.4 °F 41.5 °F 44.6 °F 93% 29.92 in 6.2 mi NW 10.4 mph - N/A   Light Drizzle
5:12 AM 46.4 °F 41.9 °F 44.6 °F 93% 29.92 in 6.2 mi NW 9.2 mph - N/A   Light Drizzle
5:16 AM 46.4 °F 41.5 °F 44.6 °F 93% 29.92 in 6.2 mi NW 10.4 mph - N/A   Light Drizzle
5:25 AM 46.4 °F 41.1 °F 44.6 °F 93% 29.92 in 6.2 mi NW 11.5 mph - N/A   Overcast
5:30 AM 46.4 °F 41.5 °F 44.6 °F 93% 29.92 in 6.2 mi NW 10.4 mph - N/A   Overcast
5:44 AM 46.4 °F 41.5 °F 44.6 °F 93% 29.92 in 6.2 mi NW 10.4 mph - N/A   Overcast
5:55 AM 46.4 °F 41.5 °F 44.6 °F 93% 29.92 in 6.2 mi NNW 10.4 mph - N/A   Overcast
6:15 AM 46.4 °F 41.5 °F 44.6 °F 93% 29.92 in 6.2 mi NNW 10.4 mph - N/A   Mostly Cloudy
6:25 AM 46.4 °F 41.1 °F 44.6 °F 93% 29.92 in 6.2 mi NNW 11.5 mph - N/A   Overcast
6:29 AM 46.4 °F 41.5 °F 44.6 °F 93% 29.92 in 6.2 mi NW 10.4 mph - N/A   Overcast
6:55 AM 46.4 °F 41.1 °F 44.6 °F 93% 29.92 in 6.2 mi NW 11.5 mph - N/A   Overcast
7:25 AM 46.4 °F 41.1 °F 44.6 °F 93% 29.92 in 6.2 mi NW 11.5 mph - N/A   Overcast
7:55 AM 46.4 °F 41.1 °F 44.6 °F 93% 29.92 in 6.2 mi NW 11.5 mph - N/A   Overcast
8:25 AM 48.2 °F - 44.6 °F 87% 29.92 in 6.2 mi NW 11.5 mph - N/A   Overcast
8:55 AM 48.2 °F - 44.6 °F 87% 29.92 in 6.2 mi NW 12.7 mph - N/A   Overcast
9:25 AM 48.2 °F - 44.6 °F 87% 29.95 in 6.2 mi NNW 11.5 mph - N/A   Overcast
9:32 AM 50.0 °F - 44.6 °F 82% 29.95 in 6.2 mi NNW 13.8 mph - N/A   Overcast
9:37 AM 50.0 °F - 44.6 °F 82% 29.95 in 6.2 mi NNW 13.8 mph - N/A   Overcast
9:55 AM 50.0 °F - 46.4 °F 87% 29.95 in 6.2 mi NW 12.7 mph - N/A   Overcast
10:06 AM 50.0 °F - 44.6 °F 82% 29.95 in 6.2 mi NNW 13.8 mph - N/A   Overcast
10:25 AM 50.0 °F - 44.6 °F 82% 29.95 in 6.2 mi NW 13.8 mph - N/A   Overcast
10:55 AM 50.0 °F - 44.6 °F 82% 29.95 in 6.2 mi NW 12.7 mph - N/A   Overcast
11:25 AM 51.8 °F - 44.6 °F 76% 29.95 in 6.2 mi NW 15.0 mph - N/A   Overcast
11:55 AM 51.8 °F - 44.6 °F 76% 29.95 in 6.2 mi NW 12.7 mph - N/A   Overcast
12:25 PM 51.8 °F - 42.8 °F 71% 29.95 in 6.2 mi NW 16.1 mph - N/A   Overcast
12:29 PM 51.8 °F - 44.6 °F 76% 29.95 in 6.2 mi NW 13.8 mph - N/A   Overcast
12:37 PM 51.8 °F - 42.8 °F 71% 29.95 in 6.2 mi NW 12.7 mph - N/A   Overcast
12:44 PM 51.8 °F - 44.6 °F 76% 29.95 in 6.2 mi NW 15.0 mph - N/A   Overcast
12:55 PM 53.6 °F - 44.6 °F 72% 29.95 in 6.2 mi NW 15.0 mph - N/A   Overcast
12:59 PM 53.6 °F - 44.6 °F 72% 29.95 in 6.2 mi NW 15.0 mph - N/A   Mostly Cloudy
1:11 PM 53.6 °F - 44.6 °F 72% 29.95 in 6.2 mi NW 17.3 mph - N/A   Mostly Cloudy
1:25 PM 53.6 °F - 44.6 °F 72% 29.92 in 6.2 mi NW 12.7 mph - N/A   Overcast
1:45 PM 55.4 °F - 46.4 °F 72% 29.92 in 6.2 mi NW 15.0 mph - N/A   Overcast
1:55 PM 55.4 °F - 44.6 °F 67% 29.92 in 6.2 mi WNW 15.0 mph - N/A   Mostly Cloudy
2:05 PM 53.6 °F - 42.8 °F 67% 29.92 in 6.2 mi NW 17.3 mph - N/A   Mostly Cloudy
2:07 PM 53.6 °F - 42.8 °F 67% 29.92 in 1.4 mi NNW 16.1 mph - N/A   Haze
2:13 PM 53.6 °F - 42.8 °F 67% 29.92 in 6.2 mi NW 15.0 mph - N/A   Overcast
2:25 PM 53.6 °F - 42.8 °F 67% 29.92 in 6.2 mi NW 15.0 mph - N/A   Overcast
2:55 PM 51.8 °F - 41.0 °F 67% 29.92 in 6.2 mi WNW 16.1 mph - N/A Rain Light Rain
3:25 PM 51.8 °F - 42.8 °F 71% 29.92 in 6.2 mi NW 11.5 mph - N/A   Mostly Cloudy
3:55 PM 53.6 °F - 42.8 °F 67% 29.92 in 6.2 mi NW 15.0 mph - N/A   Mostly Cloudy
4:25 PM 53.6 °F - 42.8 °F 67% 29.92 in 6.2 mi WNW 17.3 mph - N/A   Overcast
4:55 PM 55.4 °F - 42.8 °F 63% 29.92 in 6.2 mi WNW 16.1 mph - N/A   Overcast
5:25 PM 55.4 °F - 41.0 °F 58% 29.92 in 6.2 mi WNW 16.1 mph - N/A   Overcast
5:55 PM 53.6 °F - 41.0 °F 62% 29.92 in 6.2 mi WNW 16.1 mph - N/A   Overcast
6:25 PM 55.4 °F - 41.0 °F 58% 29.92 in 6.2 mi WNW 16.1 mph - N/A   Overcast
6:55 PM 53.6 °F - 41.0 °F 62% 29.92 in 6.2 mi WNW 15.0 mph - N/A   Overcast
7:25 PM 53.6 °F - 41.0 °F 62% 29.92 in 6.2 mi WNW 15.0 mph - N/A   Overcast
7:55 PM 51.8 °F - 41.0 °F 67% 29.92 in 6.2 mi WNW 16.1 mph - N/A   Overcast
8:25 PM 51.8 °F - 41.0 °F 67% 29.92 in 6.2 mi WNW 17.3 mph - N/A   Overcast
8:55 PM 50.0 °F - 42.8 °F 76% 29.92 in 6.2 mi WNW 13.8 mph - N/A   Overcast
9:25 PM 50.0 °F - 42.8 °F 76% 29.89 in 6.2 mi WNW 12.7 mph - N/A   Unknown
9:55 PM 48.2 °F - 44.6 °F 87% 29.89 in 6.2 mi West 9.2 mph - N/A   Unknown
10:25 PM 48.2 °F - 44.6 °F 87% 29.89 in 6.2 mi West 9.2 mph - N/A   Overcast
10:55 PM 48.2 °F - 42.8 °F 82% 29.89 in 6.2 mi West 8.1 mph - N/A   Overcast
11:25 PM 48.2 °F - 42.8 °F 82% 29.89 in 6.2 mi West 6.9 mph - N/A   Overcast
11:55 PM 48.2 °F - 42.8 °F 82% 29.89 in 6.2 mi West 6.9 mph - N/A   Mostly Cloudy